FENGYUN 1C DEB, 30472

Orbit data source: Space-Track

FENGYUN 1C DEB, 30472 is space debris in SSO originally from a launch on Mon, 10 May 1999 UTC launched from the Taiyaun Space Center, China (TSC). Fengyun 1C debris stems from the Chinese weather satellite Fengyun-1C, which was intentionally destroyed by a Chinese anti-satellite missile in 2007. This event dramatically increased the amount of space debris, with thousands of trackable fragments posing hazards to satellites and human spaceflight. The Fengyun 1C debris cloud has become a focal point in discussions about space sustainability and the need for international regulations to prevent the creation of new debris.

Loading next visibility...
Identifier
30472, 1999-025AGK
Orbit
SSO
Country
Flag of CNCN / PRC
Related business
Manufacturer
Unknown
Mission
Spacecraft
Bus & Motor
Unknown
Mass
Unknown
Launch date (UTC)
1999-05-10 (27 years ago)
Launch vehicle
Unknown
Launch site
Taiyaun Space Center, China (TSC)
Object type
Payload
Rocket body
Debris
Shape & HBR
Unknown shape, 0.1 m
Radar Cross Section
Medium (>0.1 m² and <1 m²)

Expand to show TLE details & history
Last TLE update: 1 day ago

TLE from 1 day ago
0 FENGYUN 1C DEB
1 30472U 99025AGK 26207.26906101  .00009517  00000-0  20534-2 0  9991
2 30472  98.6574 321.7051 0037240 109.9262 280.8007 14.58155492 13183
Epoch: 2026-07-26T06:27Z
TLE epoch observation values (Epoch: 2026-07-26T06:27:26.871Z)
Latitude
29.97924°
Longitude
-84.13813°
Altitude
698.078 km
Speed
7.512 km/s
True Right ascension
21h 06m 46s
True Declination
29° 49' 46"
Sunlit
Object was in full shadow at epoch
Visualization orbit readout
Latitude
Unknown
Longitude
Unknown
Altitude
Unknown
Speed
Unknown
Apparent Right ascension
Unknown
Apparent Declination
Unknown
Sunlit
N/A
Visualization observer readout
Local Sidereal Time
00:27:11
Azimuth
Unknown
Elevation
Unknown
Doppler factor
Unknown
Orbital elements
Apogee altitude
722.586 km
Perigee altitude
669.896 km
Semi-major axis
7,074.378 km
Eccentricity
0.00372
Inclination
98.6574°
RAAN
321.7051°
Arg. of periapsis
109.9262°
True anomaly
280.38116°
Mean anomaly
280.8007°
Eccentric anomaly
280.59097°
Mean motion
3.64763 °/min
Orbital period
98.69 mins
BSTAR
0.0020534
Loading maneuver chart data...
Computing Atmospheric mass density...

Documentation

Showing up to 5 results
|